Location: ???????
(55.4362°N, 38.1183°E)
Time: 03:58:57
(UTC+00:00)

Cosmos 372 Rocket - Visible Passes

Search period start: 20 October 2021 00:00
Search period end: 30 October 2021 00:00
Orbit: 739 x 767 km, 74.1° (Epoch: 19 October)

Date Brightness Start Highest point End Pass type
(mag) Time Alt. Az. Time Alt. Az. Time Alt. Az.
20 Oct 5.3 15:34:43 10° WSW 15:39:32 40° NW 15:44:22 10° NNE visible
20 Oct 6.6 17:20:01 10° WNW 17:22:44 14° NNW 17:25:29 10° N visible
21 Oct 4.5 14:52:42 10° SW 14:57:46 61° WNW 15:02:51 10° NNE visible
21 Oct 6.4 16:37:02 10° WNW 16:40:35 18° NW 16:44:08 10° N visible
22 Oct 6.0 15:54:20 10° W 15:58:31 25° NW 16:02:44 10° NNE visible
22 Oct 6.7 17:40:53 10° NNW 17:42:13 11° NNW 17:43:34 10° N visible
23 Oct 5.5 15:11:55 10° WSW 15:16:36 35° NW 15:21:17 10° NNE visible
23 Oct 6.6 16:57:31 10° NW 16:59:56 13° NNW 17:02:21 10° N visible
24 Oct 6.4 16:14:28 10° WNW 16:17:44 17° NNW 16:21:01 10° N visible
25 Oct 6.1 15:31:40 10° W 15:35:39 22° NW 15:39:38 10° NNE visible
25 Oct 6.7 17:18:38 10° NNW 17:19:27 10° NNW 17:20:17 10° N visible
25 Oct 6.8 19:02:27 10° N 19:02:32 10° N 19:02:32 10° N visible
26 Oct 5.6 14:49:08 10° WSW 14:53:40 31° NW 14:58:12 10° NNE visible
26 Oct 6.5 16:35:04 10° NW 16:37:08 12° NNW 16:39:13 10° N visible
27 Oct 6.4 15:51:55 10° WNW 15:54:55 15° NNW 15:57:54 10° N visible
28 Oct 6.1 15:09:01 10° W 15:12:46 20° NW 15:16:32 10° NNE visible
28 Oct 6.8 18:39:15 10° N 18:39:28 10° N 18:39:28 10° N visible
29 Oct 5.7 14:26:24 10° WSW 14:30:45 27° NW 14:35:07 10° NNE visible
29 Oct 6.5 16:12:39 10° NW 16:14:21 11° NNW 16:16:03 10° N visible
